STARLINK-1351, 45697

Orbit data source: Space-Track

STARLINK-1351, 45697 is a payload satellite owned by SpaceX/Seattle (US) in LEO that was launched on Thu, 04 Jun 2020 UTC via an FALCON 9 launch vehicle from the Air Force Eastern Test Range (AFETR). Payload-class satellites include a variety of spacecraft equipped with specific instruments for various scientific and technological missions. These include communications satellites like Starlink; space stations such as the ISS; scientific satellites like the Hubble; Earth observation satellites from companies like Planet Labs, Umbra, and HawkEye 360; GPS; miniature CubeSats for education and research; and military/defense satellites.

Loading next visibility...
Identifier
45697, 2020-035AS
Orbit
LEO
Country
Flag of USUS
Related business
Manufacturer
SpaceX/Seattle
Mission
Operational Commercial Communications
Bus & Motor
STARLINK, Unknown motor
Mass
260 kg wet, ~248 kg dry
Launch date (UTC)
2020-06-04 (5 years ago)
Launch vehicle
FALCON 9
Launch site
Air Force Eastern Test Range (AFETR)
Object type
Payload
Rocket body
Debris
Shape & HBR
Box + 1 Pan, 10.1 m
Radar Cross Section
13.562 m², Large (>1 m²)

Expand to show TLE details & history
Last TLE update: 17 hours ago

TLE from 17 hours ago
0 STARLINK-1351
1 45697U 20035AS  25287.30958143 -.00002942  00000-0 -17872-3 0  9995
2 45697  53.0550 333.7467 0001410  91.3628 268.7523 15.06388443297091
Epoch: 2025-10-14T07:25Z
TLE epoch observation values (Epoch: 2025-10-14T07:25:47.835Z)
Latitude
0.00001°
Longitude
-160.80246°
Altitude
548.148 km
Speed
7.589 km/s
True Right ascension
22h 14m 59s
True Declination
0° 00' 00"
Sunlit
Object was in full shadow at epoch
Visualization orbit readout
Latitude
Unknown
Longitude
Unknown
Altitude
Unknown
Speed
Unknown
Apparent Right ascension
Unknown
Apparent Declination
Unknown
Sunlit
N/A
Visualization observer readout
Local Sidereal Time
19:03:33
Azimuth
Unknown
Elevation
Unknown
Doppler factor
Unknown
Orbital elements
Apogee altitude
548.494 km
Perigee altitude
546.541 km
Semi-major axis
6,925.655 km
Eccentricity
0.00014
Inclination
53.055°
RAAN
333.7467°
Arg. of periapsis
91.3628°
True anomaly
268.73615°
Mean anomaly
268.7523°
Eccentric anomaly
268.74422°
Mean motion
3.76575 °/min
Orbital period
95.6 mins
BSTAR
-0.00017872
Loading maneuver chart data...
Computing Atmospheric mass density...
Loading historical data...
Loading historical data...
Loading historical data...
Loading historical data...
Loading historical data...
Loading historical data...
Loading historical data...

Documentation

Showing up to 5 results
|